Weather History for Billings, MT

Change the Weather History Date:

Monday, September 3, 2012

  Actual Average Record
Temperature  
Mean Temperature 71 °F 66 °F  
Max Temperature 85 °F 80 °F 97 °F (1950)
Min Temperature 57 °F 52 °F 39 °F (1951)
Degree Days  
Heating Degree Days 0 3  
Month to date heating degree days 0 8  
Since 1 July heating degree days 7 45  
Cooling Degree Days 6 3  
Month to date cooling degree days 24 11  
Year to date cooling degree days 917 593  
Growing Degree Days 20 (Base 50)    
Moisture  
Dew Point 22 °F    
Average Humidity 15    
Maximum Humidity 29    
Minimum Humidity 5    
Precipitation  
Precipitation 0.00 in 0.03 in 0.59 in (1971)
Month to date precipitation T 0.10  
Year to date precipitation 5.08 10.15  
Snow  
Snow 0.00 in 0.00 in T in (1962)
Month to date snowfall 0.0 0.0  
Since 1 July snowfall 0.0 0.0  
Since 1 September snowfall 0.0 0.0  
Snow Depth 0.00 in    
Sea Level Pressure  
Sea Level Pressure 29.93 in    
Wind  
Wind Speed 9 mph (West)    
Max Wind Speed 21 mph    
Max Gust Speed 29 mph    
Visibility 10 miles    
Events      
T = Trace of Precipitation, MM = Missing Value Source: NWS Daily Summary

Daily Weather History Graph

Daily Weather History Graph

Search for Another Location

Airport:

Trip Planner

Search our weather history database for the weather conditions in past years. The results will help you decide how hot, cold, wet, or windy it might be!

Date:

Astronomy

Sep. 03, 2012 Rise Set
Actual Time 6:38 AM MDT 7:47 PM MDT
Civil Twilight 6:07 AM MDT 8:17 PM MDT
Nautical Twilight 5:30 AM MDT 8:54 PM MDT
Astronomical Twilight 4:51 AM MDT 9:33 PM MDT
Moon 8:53 PM MDT (9/3) 10:03 AM MDT (9/3)
Length of Visible Light 14h 10m
Length of Day
13h 09m
Waning Gibbous, 90% of the Moon is Illuminated
Sep 3
Waning Gibbous
Sep 8
Last Quarter
Sep 15
New
Sep 22
First Quarter
Sep 29
Full

Hourly Weather History & Observations

Time (MDT) Temp. Dew Point Humidity Pressure Visibility Wind Dir Wind Speed Gust Speed Precip Events Conditions
12:53 AM 66.9 °F 26.1 °F 21% 29.88 in 10.0 mi WNW 11.5 mph - N/A   Clear
1:53 AM 66.9 °F 23.0 °F 19% 29.87 in 10.0 mi NNE 9.2 mph 20.7 mph N/A   Clear
2:53 AM 64.0 °F 23.0 °F 21% 29.91 in 10.0 mi NW 13.8 mph - N/A   Partly Cloudy
3:53 AM 66.0 °F 18.0 °F 16% 29.92 in 10.0 mi NW 18.4 mph - N/A   Clear
4:53 AM 63.0 °F 17.1 °F 17% 29.94 in 10.0 mi NW 16.1 mph - N/A   Clear
5:53 AM 61.0 °F 17.1 °F 18% 29.96 in 10.0 mi WNW 10.4 mph - N/A   Clear
6:53 AM 59.0 °F 17.1 °F 20% 29.99 in 10.0 mi NW 10.4 mph - N/A   Clear
7:53 AM 62.1 °F 17.1 °F 18% 29.99 in 10.0 mi West 6.9 mph - N/A   Clear
8:53 AM 61.0 °F 28.0 °F 29% 30.02 in 10.0 mi SW 8.1 mph - N/A   Clear
9:53 AM 63.0 °F 28.0 °F 27% 30.02 in 10.0 mi SSW 9.2 mph - N/A   Clear
10:53 AM 68.0 °F 27.0 °F 21% 30.01 in 10.0 mi SW 8.1 mph - N/A   Clear
11:53 AM 72.0 °F 26.1 °F 18% 29.98 in 10.0 mi SSW 8.1 mph - N/A   Clear
12:53 PM 75.0 °F 25.0 °F 16% 29.96 in 10.0 mi South 10.4 mph - N/A   Clear
1:53 PM 78.1 °F 26.1 °F 15% 29.93 in 9.0 mi SSW 9.2 mph - N/A   Clear
2:53 PM 81.0 °F 26.1 °F 13% 29.91 in 10.0 mi WSW 11.5 mph - N/A   Clear
3:53 PM 84.0 °F 21.0 °F 10% 29.88 in 10.0 mi WSW 10.4 mph 28.8 mph N/A   Clear
4:53 PM 82.0 °F 24.1 °F 12% 29.87 in 10.0 mi SSW 8.1 mph - N/A   Clear
5:53 PM 82.0 °F 24.1 °F 12% 29.86 in 10.0 mi SSW 4.6 mph - N/A   Clear
6:53 PM 80.1 °F 21.9 °F 12% 29.87 in 10.0 mi NNW 6.9 mph - N/A   Clear
7:53 PM 75.0 °F 19.0 °F 12% 29.88 in 10.0 mi North 8.1 mph - N/A   Clear
8:53 PM 70.0 °F 19.0 °F 14% 29.91 in 10.0 mi North 11.5 mph - N/A   Clear
9:53 PM 73.0 °F 19.0 °F 13% 29.90 in 10.0 mi Calm Calm - N/A   Clear
10:53 PM 63.0 °F 19.9 °F 19% 29.91 in 10.0 mi NNE 5.8 mph - N/A   Partly Cloudy
11:53 PM 62.1 °F 19.0 °F 19% 29.90 in 10.0 mi NW 6.9 mph - N/A   Clear